[[{"header":{"parameterUnit":"m.s-1","parameterCategory":2,"la1":30.2991,"la2":30.254,"lo1":-89.0895,"lo2":-89.0444,"dy":0.0017,"dx":0.0017,"nx":28,"ny":28,"refTime":"2024-02-13T03:00:00:Z","depth":"0","parameterNumber":2,"parameterNumberName":"U-component_of_CURRENTS"},"data":[0,0,0,0,0,0,0,0,0,0,0,0,0,0,0,0,0,0,0,0,0,0,0,0,0,0,0,0,0,0,0,0,0,0,0,0,0,0,0,0,0,0,0,0,0,0,0,0,0,0,0,0,0,0,0,0,0,0,0.2018,0.2018,0,0.2033,0.2033,0.2033,0.2065,0.2066,0.2066,0.2067,0.2084,0.2084,0.2084,0,0,0,0,0,0,0,0,0,0,0,0,0,0.2035,0.2034,0.2018,0.2018,0.2018,0.2033,0.2033,0.2033,0.2065,0.2066,0.2067,0.2068,0.2084,0.2084,0.2084,0,0,0,0,0,0,0,0,0,0,0,0,0,0.2035,0.2034,0.2018,0.2037,0.204,0.2033,0.2033,0.2033,0.2064,0.2066,0.2067,0.2068,0.2085,0.2084,0.2084,0.2056,0,0,0.2082,0.2082,0,0,0,0,0,0,0,0,0.2035,0.2034,0.2034,0.2036,0.2038,0.205,0.2046,0.2042,0.2064,0.2053,0.2067,0.2069,0.2073,0.2074,0.2071,0.2057,0.2058,0.2082,0.2082,0.2082,0.2082,0,0,0,0,0,0,0,0.2034,0.2033,0.2022,0.2034,0.2037,0.2052,0.2053,0.2045,0.2055,0.2054,0.2057,0.2061,0.2075,0.2072,0.2072,0.2058,0.2082,0.2082,0.2082,0.2081,0.2085,0.2085,0,0,0,0,0,0,0.2034,0.2033,0.2021,0.2022,0.2042,0.2051,0.2052,0.2043,0.2055,0.2058,0.206,0.2063,0.2072,0.2072,0.2073,0.2096,0.2082,0.2081,0.2081,0.2085,0.2085,0.2085,0,0,0,0,0,0,0.2034,0.2032,0.2021,0.2031,0.2031,0.205,0.204,0.2043,0.205,0.206,0.2063,0.2065,0.2073,0.2073,0.2075,0.2095,0.2081,0.2081,0.2084,0.2085,0.2085,0.2106,0,0,0,0,0,0,0.2034,0.2032,0.2022,0.203,0.203,0.2022,0.2039,0.2043,0.2051,0.2055,0.2064,0.2067,0.2074,0.2076,0.2075,0.2094,0.208,0.2084,0.2084,0.2085,0.2105,0.2107,0.2109,0,0,0,0,0,0.2034,0.2013,0.2021,0.202,0.2017,0.2022,0.2023,0.204,0.205,0.205,0.206,0.2067,0.208,0.2075,0.2074,0.2093,0.2083,0.2084,0.2085,0.2104,0.2107,0.2109,0,0,0,0,0,0,0.201,0.2014,0.2024,0.2003,0.2017,0.2028,0.2026,0.2039,0.2045,0.205,0.2061,0.2063,0.2077,0.2075,0.2069,0.2097,0.2087,0.2088,0.2102,0.2105,0.2107,0.2147,0.208,0,0,0,0,0,0.2001,0.1987,0.2003,0.1987,0.1994,0.201,0.2014,0.2028,0.2037,0.2042,0.2049,0.206,0.2076,0.2082,0.2088,0.209,0.213,0.2105,0.2107,0.2109,0.2141,0.221,0.2222,0.2088,0.2088,0.2088,0,0,0.1985,0.1987,0.1978,0.1982,0.1991,0.2007,0.2015,0.2021,0.2042,0.204,0.2058,0.2063,0.2078,0.2093,0.2099,0.2095,0.2165,0.211,0.2112,0.2143,0.2212,0.2226,0.2238,0.2089,0.2089,0.2089,0,0,0.1961,0.1952,0.1946,0.1958,0.1978,0.1994,0.1998,0.2015,0.2032,0.204,0.206,0.2083,0.2078,0.2114,0.2128,0.2143,0.2174,0.2134,0.2179,0.2244,0.2257,0.2268,0.2328,0.2344,0.2136,0.2136,0.2136,0,0.195,0.1943,0.1945,0.1954,0.1973,0.1992,0.2011,0.2025,0.2041,0.2069,0.2049,0.2099,0.2101,0.2164,0.2172,0.2153,0.2191,0.2166,0.225,0.2262,0.2274,0.2332,0.2351,0.2137,0.2137,0.2137,0.2137,0,0.1934,0.1936,0.1933,0.1958,0.1976,0.1987,0.2022,0.2042,0.2058,0.2086,0.2136,0.2142,0.2188,0.2181,0.218,0.2265,0.2265,0.2245,0.2249,0.2289,0.2347,0.2366,0.2139,0.2138,0.2138,0.2138,0,0,0.1893,0.192,0.192,0.1943,0.1983,0.1995,0.2041,0.2098,0.2149,0.2155,0.2229,0.2247,0.2268,0.2287,0.2293,0.2342,0.244,0.2329,0.2332,0.2398,0.259,0.2549,0.2566,0.2433,0.2436,0.2439,0.2594,0,0.1891,0.1908,0.193,0.1962,0.1981,0.2027,0.2072,0.2127,0.2176,0.2245,0.2282,0.2339,0.2304,0.2333,0.2381,0.2431,0.2492,0.24,0.2533,0.2538,0.2506,0.2587,0.248,0.2606,0.2613,0.2616,0.2618,0,0.1874,0.1894,0.1924,0.1983,0.1998,0.2025,0.2124,0.2168,0.2277,0.2323,0.24,0.2433,0.2524,0.2475,0.2604,0.2546,0.2584,0.2609,0.2615,0.2593,0.2534,0.2568,0.264,0.2565,0.2647,0.2645,0.2643,0,0.1848,0.1888,0.1916,0.1932,0.2003,0.2038,0.2085,0.2191,0.2262,0.239,0.2452,0.2555,0.2611,0.2681,0.2729,0.2681,0.2867,0.2805,0.281,0.2807,0.2754,0.2739,0.2782,0.2918,0.2917,0.2917,0.2916,0,0.1837,0.1856,0.1902,0.1916,0.1973,0.2023,0.2117,0.2185,0.2314,0.2412,0.2489,0.2593,0.2665,0.2765,0.2797,0.2877,0.293,0.286,0.2861,0.2753,0.2738,0.2698,0.2657,0.2923,0.2921,0.292,0.2919,0,0.1813,0.1836,0.1871,0.1936,0.1962,0.2002,0.213,0.2205,0.2312,0.2449,0.2494,0.2653,0.2787,0.2855,0.2988,0.296,0.2957,0.3052,0.2918,0.29,0.2788,0.2752,0.2719,0.2636,0.3084,0.3084,0.3084,0,0.1814,0.1824,0.188,0.1917,0.195,0.2026,0.2091,0.2203,0.2286,0.249,0.2549,0.2724,0.2833,0.3011,0.3037,0.311,0.3005,0.3026,0.2908,0.2808,0.2769,0.2629,0.2551,0.2846,0.2845,0.2843,0.2842,0,0.1845,0.185,0.1893,0.1945,0.2,0.2059,0.2144,0.22,0.2336,0.244,0.2601,0.2706,0.288,0.2925,0.3008,0.303,0.2862,0.2995,0.2937,0.2643,0.2452,0.2362,0.2715,0.2829,0.283,0.2831,0.2832,0.2832,0.1901,0.1921,0.1968,0.2006,0.205,0.2072,0.2098,0.2184,0.2284,0.2397,0.2562,0.2669,0.2783,0.2892,0.2893,0.2818,0.279,0.2721,0.2707,0.2591,0.2439,0.2762,0.2836,0.2837,0.2838,0.2839,0.284,0,0.1991,0.2002,0.2038,0.2064,0.2065,0.2083,0.2128,0.2129,0.2184,0.2322,0.2436,0.2557,0.2595,0.2658,0.2649,0.2543,0.2389,0.2477,0.2262,0.2215,0.2562,0.2477,0.2421,0.2421,0.2421,0.2421,0.2421,0.2421,0.2065,0.2101,0.2075,0.2074,0.2067,0.2034,0.2026,0.2021,0.2081,0.2146,0.2214,0.2317,0.244,0.2486,0.2403,0.2342,0.2148,0.2046,0.2039,0.2293,0.2313,0.2333,0.2243,0.2139,0.2138,0.1578,0.1574,0.1571]},{"header":{"parameterUnit":"m.s-1","parameterCategory":2,"la1":30.2991,"la2":30.254,"lo1":-89.0895,"lo2":-89.0444,"dy":0.0017,"dx":0.0017,"nx":28,"ny":28,"refTime":"2024-02-13T03:00:00:Z","depth":"0","parameterNumber":3,"parameterNumberName":"V-component_of_CURRENTS"},"data":[0,0,0,0,0,0,0,0,0,0,0,0,0,0,0,0,0,0,0,0,0,0,0,0,0,0,0,0,0,0,0,0,0,0,0,0,0,0,0,0,0,0,0,0,0,0,0,0,0,0,0,0,0,0,0,0,0,0,0.0031,0.0031,0,-0.0026,-0.0026,-0.0027,-0.0074,-0.0074,-0.0074,-0.0075,-0.015,-0.0152,-0.0153,0,0,0,0,0,0,0,0,0,0,0,0,0,0.0062,0.0062,0.0031,0.0031,0.003,-0.0026,-0.0026,-0.0027,-0.0073,-0.0074,-0.0074,-0.0075,-0.0149,-0.0151,-0.0153,0,0,0,0,0,0,0,0,0,0,0,0,0,0.003,0.0062,0.0031,0.0001,-0.0002,-0.0025,-0.0026,-0.0028,-0.0073,-0.0074,-0.0075,-0.0075,-0.0149,-0.0151,-0.0154,-0.0157,0,0,-0.0161,-0.0162,0,0,0,0,0,0,0,0,0.0032,0.0029,0.0006,0.0003,-0.0001,-0.0042,-0.0043,-0.0071,-0.0073,-0.0048,-0.0075,-0.0075,-0.0114,-0.012,-0.013,-0.0161,-0.0164,-0.0161,-0.0163,-0.0164,-0.0165,0,0,0,0,0,0,0,0.0034,0.0031,0.0008,0.0006,0.0001,-0.0023,-0.0027,-0.0049,-0.0078,-0.005,-0.0053,-0.0057,-0.0117,-0.0128,-0.0133,-0.0165,-0.0161,-0.0163,-0.0165,-0.0166,-0.0194,-0.0193,0,0,0,0,0,0,0.0046,0.0033,0.0009,0.0006,0.0016,-0.0022,-0.0028,-0.0029,-0.0078,-0.0085,-0.0057,-0.0059,-0.0123,-0.013,-0.0135,-0.0132,-0.0164,-0.0166,-0.0168,-0.0195,-0.0194,-0.0193,0,0,0,0,0,0,0.0047,0.0045,0.0012,0.0019,0.0013,-0.0022,-0.0023,-0.003,-0.0039,-0.0083,-0.0091,-0.0058,-0.0124,-0.0132,-0.0147,-0.0135,-0.0167,-0.017,-0.0196,-0.0195,-0.0194,-0.0131,0,0,0,0,0,0,0.0048,0.0046,0.005,0.002,0.0013,0.0007,-0.0023,-0.0031,-0.004,-0.0044,-0.0087,-0.0094,-0.0125,-0.0143,-0.0149,-0.0139,-0.0171,-0.0197,-0.0195,-0.0194,-0.0134,-0.0128,-0.0123,0,0,0,0,0,0.005,0.0061,0.0051,0.0048,0.0021,0.0008,0.0002,-0.0026,-0.0039,-0.0037,-0.0065,-0.0093,-0.0139,-0.0144,-0.0152,-0.0142,-0.0197,-0.0196,-0.0194,-0.0136,-0.0129,-0.0123,0,0,0,0,0,0,0.0079,0.0057,0.0045,0.005,0.0034,0.0,-0.0,-0.0018,-0.0039,-0.0042,-0.0085,-0.0094,-0.0105,-0.0128,-0.0133,-0.0146,-0.0172,-0.0172,-0.0126,-0.0119,-0.0113,-0.0104,-0.0174,0,0,0,0,0,0.0088,0.0089,0.0065,0.0069,0.0064,0.0034,0.0026,0.0009,-0.0014,-0.0024,-0.0054,-0.0082,-0.0104,-0.0114,-0.0139,-0.0143,-0.0168,-0.0142,-0.0136,-0.0131,-0.0128,-0.0162,-0.016,-0.0188,-0.0188,-0.0188,0,0,0.0099,0.0089,0.0088,0.0075,0.0059,0.0061,0.0027,0.0022,0.0023,-0.0028,-0.0036,-0.0065,-0.0101,-0.0109,-0.0115,-0.0127,-0.013,-0.0129,-0.0124,-0.0124,-0.016,-0.0158,-0.0155,-0.0187,-0.0187,-0.0187,0,0,0.0125,0.0115,0.0124,0.0115,0.01,0.0085,0.0089,0.0062,0.0049,0.004,0.0004,-0.0017,-0.0048,-0.0073,-0.0089,-0.0066,-0.0101,-0.0069,-0.0032,-0.0065,-0.0063,-0.0062,-0.0067,-0.0067,-0.0064,-0.0064,-0.0064,0,0.014,0.0148,0.0126,0.0133,0.0132,0.0102,0.0116,0.0101,0.0072,0.0066,0.0047,-0.0001,-0.0033,-0.0045,-0.0037,-0.0054,-0.0068,-0.0055,-0.0058,-0.0057,-0.0057,-0.0063,-0.0064,-0.006,-0.0061,-0.0061,-0.0061,0,0.0169,0.0176,0.0183,0.0183,0.0182,0.0188,0.0169,0.0165,0.0147,0.0126,0.0108,0.0062,0.0033,0.0022,-0.0002,-0.001,-0.0017,-0.0049,-0.0075,-0.005,-0.0058,-0.006,-0.0056,-0.0057,-0.0058,-0.0059,0,0,0.02,0.0203,0.0206,0.0218,0.0209,0.0215,0.0221,0.0216,0.0226,0.0186,0.0189,0.0142,0.0113,0.0094,0.0059,0.0032,0.0024,0.0001,-0.0003,-0.0003,-0.0025,-0.0021,-0.0022,-0.0009,-0.0009,-0.001,-0.0022,0,0.023,0.0262,0.0252,0.0285,0.0302,0.028,0.0288,0.028,0.0268,0.0263,0.0208,0.0195,0.0142,0.0135,0.0098,0.0046,0.0019,0.0032,-0.005,-0.0052,-0.0051,-0.0025,0.0018,0.0011,-0.0024,-0.0025,-0.0025,0,0.0261,0.0281,0.0319,0.0341,0.0346,0.0357,0.0375,0.0382,0.0363,0.0353,0.0324,0.0279,0.0242,0.0187,0.0104,0.0118,0.0052,0.0004,0.0001,-0.0021,-0.0052,-0.0025,0.0008,-0.0118,-0.0028,-0.0028,-0.0028,0,0.0301,0.0328,0.0365,0.037,0.0386,0.0398,0.041,0.0407,0.0438,0.0415,0.0431,0.0359,0.035,0.0245,0.0154,0.0124,0.0069,0.0009,-0.0049,-0.0049,-0.0041,-0.004,-0.0142,-0.0063,-0.0063,-0.0063,-0.0063,0,0.0338,0.0369,0.0385,0.0405,0.0454,0.0445,0.0499,0.0497,0.052,0.0588,0.0485,0.0534,0.0363,0.0313,0.0192,0.0093,0.0097,-0.0033,-0.0055,-0.0015,-0.0011,-0.0146,-0.0233,-0.0063,-0.0063,-0.0063,-0.0063,0,0.038,0.0386,0.0433,0.0459,0.0475,0.0513,0.0579,0.0627,0.0625,0.0714,0.0714,0.0676,0.0621,0.0455,0.0316,0.0172,-0.0012,0.0011,0.0087,0.0073,-0.0135,-0.0218,-0.0331,-0.0394,-0.0077,-0.0077,-0.0077,0,0.0409,0.0434,0.0484,0.053,0.0547,0.0606,0.066,0.0683,0.0759,0.0837,0.09,0.0859,0.089,0.0673,0.0419,0.0199,0.0043,0.0051,-0.0021,-0.013,-0.024,-0.0288,-0.0337,0.0024,0.0025,0.0026,0.0026,0,0.0478,0.0487,0.0535,0.0624,0.0687,0.0763,0.0848,0.0926,0.0991,0.108,0.1224,0.1252,0.1053,0.0857,0.0511,0.0351,-0.0032,0.0056,-0.0084,-0.0189,-0.0221,-0.0295,0.0032,0.0032,0.0032,0.0031,0.0031,0.0031,0.0547,0.0593,0.0661,0.0744,0.082,0.0931,0.1016,0.1141,0.1297,0.146,0.1483,0.1559,0.1217,0.0771,0.0525,0.0057,0.0025,-0.0108,-0.0201,-0.024,-0.0304,0.005,0.0035,0.0034,0.0034,0.0034,0.0033,0,0.0656,0.0709,0.0789,0.0894,0.0987,0.1002,0.1158,0.1264,0.1483,0.1643,0.1778,0.1658,0.1253,0.0796,0.0155,-0.0158,-0.0269,-0.033,-0.0399,-0.0443,-0.0143,-0.0142,-0.0162,-0.0162,-0.0162,-0.0161,-0.0161,-0.0161,0.0737,0.0834,0.0862,0.1032,0.1098,0.1228,0.1319,0.1498,0.1638,0.1852,0.1904,0.1905,0.1527,0.0462,-0.0268,-0.0432,-0.064,-0.066,-0.0804,-0.0612,-0.0598,-0.0585,-0.0605,-0.0722,-0.0722,-0.1034,-0.1038,-0.1041]}],[{"header":{"parameterUnit":"m.s-1","parameterCategory":2,"la1":30.2991,"la2":30.254,"lo1":-89.0895,"lo2":-89.0444,"dy":0.0017,"dx":0.0017,"nx":28,"ny":28,"refTime":"2024-02-13T03:00:00:Z","depth":"2","parameterNumber":2,"parameterNumberName":"U-component_of_CURRENTS"},"data":[0,0,0,0,0,0,0,0,0,0,0,0,0,0,0,0,0,0,0,0,0,0,0,0,0,0,0,0,0,0,0,0,0,0,0,0,0,0,0,0,0,0,0,0,0,0,0,0,0,0,0,0,0,0,0,0,0,0,0.1821,0.1821,0,0.1844,0.1844,0.1844,0.1861,0.1861,0.1861,0.1861,0.1873,0.1873,0.1874,0,0,0,0,0,0,0,0,0,0,0,0,0,0.1793,0.1793,0.1821,0.1821,0.1822,0.1844,0.1844,0.1845,0.1861,0.1861,0.1861,0.1861,0.1873,0.1873,0.1874,0,0,0,0,0,0,0,0,0,0,0,0,0,0.1808,0.1793,0.1821,0.1833,0.1835,0.1844,0.1844,0.1845,0.1861,0.1861,0.1861,0.1862,0.1873,0.1873,0.1874,0.1868,0,0,0.1874,0.1874,0,0,0,0,0,0,0,0,0.1808,0.1809,0.1831,0.1832,0.1834,0.1851,0.1839,0.1852,0.186,0.185,0.1861,0.1862,0.1865,0.1866,0.1868,0.1868,0.1869,0.1874,0.1874,0.1874,0.1874,0,0,0,0,0,0,0,0.1806,0.1808,0.1829,0.1831,0.1833,0.1839,0.1841,0.1841,0.1854,0.1851,0.1852,0.1856,0.1866,0.1868,0.1869,0.1869,0.1874,0.1874,0.1874,0.1874,0.191,0.1911,0,0,0,0,0,0,0.1805,0.1807,0.1828,0.183,0.1823,0.1839,0.1841,0.1844,0.1854,0.1857,0.1856,0.1857,0.1868,0.1868,0.1869,0.1898,0.1874,0.1874,0.1875,0.1909,0.191,0.1911,0,0,0,0,0,0,0.1805,0.1807,0.1827,0.182,0.1823,0.1839,0.1842,0.1844,0.1856,0.1859,0.1861,0.1866,0.1868,0.1869,0.1882,0.1898,0.1875,0.1875,0.1908,0.191,0.1911,0.1934,0,0,0,0,0,0,0.1804,0.1806,0.181,0.182,0.1824,0.1838,0.1842,0.1845,0.1858,0.186,0.1868,0.1869,0.1868,0.1882,0.1882,0.1897,0.1875,0.1907,0.1909,0.1911,0.1932,0.1936,0.1939,0,0,0,0,0,0.1802,0.1801,0.181,0.1813,0.1827,0.1839,0.1841,0.1853,0.1858,0.1864,0.1874,0.1869,0.1892,0.1882,0.1882,0.1898,0.1907,0.1909,0.191,0.1931,0.1935,0.1939,0,0,0,0,0,0,0.1787,0.1803,0.1813,0.1816,0.1831,0.1842,0.1847,0.1857,0.1869,0.1873,0.1875,0.1877,0.1896,0.1894,0.1883,0.1915,0.1901,0.1903,0.1916,0.192,0.1924,0.1936,0.1875,0,0,0,0,0,0.1786,0.1792,0.181,0.1813,0.1822,0.1838,0.1845,0.1855,0.1866,0.1872,0.1878,0.1888,0.1903,0.1908,0.1916,0.1928,0.1951,0.1941,0.1945,0.1948,0.1959,0.2009,0.2018,0.1918,0.1918,0.1918,0,0,0.178,0.1791,0.1794,0.1811,0.1823,0.1838,0.1843,0.1856,0.1874,0.187,0.1892,0.1898,0.1909,0.1928,0.1936,0.1928,0.1989,0.195,0.1952,0.1962,0.2012,0.2022,0.2031,0.1919,0.1919,0.1919,0,0,0.1774,0.1783,0.179,0.1804,0.1827,0.1839,0.1847,0.1864,0.188,0.1896,0.1907,0.1927,0.1934,0.1955,0.1964,0.1992,0.2006,0.1992,0.2018,0.2067,0.2076,0.2084,0.2129,0.2141,0.1993,0.1993,0.1993,0,0.1769,0.1781,0.1794,0.1807,0.1822,0.1842,0.1859,0.1876,0.1896,0.1915,0.1905,0.1947,0.1951,0.1996,0.2006,0.2001,0.203,0.2,0.2072,0.2081,0.2089,0.2133,0.2146,0.1994,0.1994,0.1994,0.1994,0,0.1771,0.1784,0.1789,0.1816,0.1834,0.1848,0.1878,0.1898,0.1914,0.1933,0.1974,0.1986,0.2018,0.2019,0.2019,0.208,0.2083,0.2071,0.2062,0.21,0.2144,0.2157,0.1996,0.1996,0.1995,0.1995,0,0,0.1748,0.1785,0.1786,0.1801,0.1842,0.1851,0.1892,0.1932,0.1965,0.1982,0.2032,0.2052,0.2069,0.2083,0.2093,0.2127,0.2203,0.2124,0.2126,0.217,0.2317,0.2264,0.2273,0.2206,0.2208,0.221,0.2326,0,0.1749,0.1771,0.1796,0.182,0.1836,0.1873,0.1908,0.1947,0.1986,0.2036,0.2068,0.2112,0.2093,0.2119,0.2153,0.2203,0.2239,0.2173,0.2273,0.2276,0.2225,0.2286,0.2088,0.217,0.2339,0.2341,0.2343,0,0.1742,0.1761,0.1788,0.1827,0.1838,0.1859,0.1924,0.1962,0.2042,0.2079,0.2137,0.2166,0.2243,0.2209,0.2315,0.2278,0.2302,0.2322,0.2327,0.228,0.2247,0.2159,0.2188,0.2365,0.2363,0.2361,0.236,0,0.1713,0.175,0.1771,0.1784,0.1837,0.186,0.1896,0.1971,0.2028,0.2124,0.218,0.2254,0.2321,0.2362,0.2406,0.2376,0.2511,0.2476,0.2448,0.2445,0.2297,0.2276,0.2541,0.2541,0.2541,0.254,0.254,0,0.1701,0.1711,0.1756,0.1764,0.1799,0.1842,0.1906,0.1956,0.206,0.2135,0.2208,0.2284,0.2363,0.244,0.2452,0.2504,0.2556,0.2474,0.2478,0.2298,0.2277,0.2455,0.2444,0.2545,0.2544,0.2543,0.2542,0,0.1664,0.1694,0.1714,0.1765,0.1786,0.1811,0.1916,0.1964,0.2068,0.2179,0.2219,0.2352,0.2453,0.2508,0.2598,0.2576,0.2614,0.2606,0.2389,0.2365,0.2504,0.2492,0.2606,0.2605,0.2605,0.2604,0.2604,0,0.1649,0.1655,0.1706,0.1728,0.1753,0.1811,0.1858,0.1962,0.2026,0.2207,0.2253,0.2396,0.2464,0.2587,0.2578,0.2606,0.2631,0.2427,0.2324,0.2522,0.2515,0.2504,0.2494,0.2144,0.214,0.2136,0.2134,0,0.1628,0.1642,0.1667,0.1718,0.1758,0.1805,0.1877,0.192,0.2049,0.2139,0.2253,0.2323,0.2449,0.2398,0.2443,0.2421,0.2407,0.2359,0.2645,0.215,0.2093,0.2084,0.2087,0.2103,0.2106,0.2108,0.211,0.2111,0.1626,0.1634,0.1681,0.1712,0.1757,0.1784,0.1796,0.1868,0.1946,0.2032,0.2153,0.2193,0.224,0.2214,0.2156,0.2117,0.2277,0.2163,0.2171,0.2183,0.21,0.2045,0.2031,0.2033,0.2035,0.2037,0.2039,0,0.1644,0.166,0.1679,0.1715,0.1723,0.1764,0.1802,0.1783,0.1813,0.1897,0.1963,0.184,0.1827,0.1871,0.1769,0.1773,0.1725,0.1695,0.1609,0.1643,0.1672,0.1559,0.1349,0.1346,0.1344,0.1342,0,0,0.1671,0.1683,0.1668,0.1672,0.1689,0.1672,0.1664,0.1634,0.1655,0.1616,0.162,0.1762,0.1834,0.1572,0.1539,0.1425,0.1515,0.1368,0.1929,0.1864,0.1889,0.196,0.1828,0,0,0,0,0]},{"header":{"parameterUnit":"m.s-1","parameterCategory":2,"la1":30.2991,"la2":30.254,"lo1":-89.0895,"lo2":-89.0444,"dy":0.0017,"dx":0.0017,"nx":28,"ny":28,"refTime":"2024-02-13T03:00:00:Z","depth":"2","parameterNumber":3,"parameterNumberName":"V-component_of_CURRENTS"},"data":[0,0,0,0,0,0,0,0,0,0,0,0,0,0,0,0,0,0,0,0,0,0,0,0,0,0,0,0,0,0,0,0,0,0,0,0,0,0,0,0,0,0,0,0,0,0,0,0,0,0,0,0,0,0,0,0,0,0,0.0007,0.0007,0,-0.0044,-0.0045,-0.0046,-0.0079,-0.0079,-0.0079,-0.0079,-0.0135,-0.0136,-0.0138,0,0,0,0,0,0,0,0,0,0,0,0,0,0.0044,0.0043,0.0008,0.0007,0.0006,-0.0044,-0.0045,-0.0046,-0.0079,-0.0079,-0.0079,-0.0079,-0.0135,-0.0136,-0.0138,0,0,0,0,0,0,0,0,0,0,0,0,0,0.0013,0.0043,0.0008,-0.0016,-0.0018,-0.0044,-0.0045,-0.0046,-0.0079,-0.0079,-0.0079,-0.0079,-0.0134,-0.0136,-0.0138,-0.0146,0,0,-0.0144,-0.0145,0,0,0,0,0,0,0,0,0.0015,0.0012,-0.0012,-0.0014,-0.0017,-0.0055,-0.0053,-0.008,-0.0079,-0.0056,-0.0079,-0.0079,-0.0108,-0.0112,-0.0122,-0.0149,-0.0151,-0.0145,-0.0146,-0.0147,-0.0147,0,0,0,0,0,0,0,0.0017,0.0013,-0.0014,-0.0012,-0.0016,-0.0035,-0.004,-0.0058,-0.0081,-0.0058,-0.0061,-0.0065,-0.011,-0.012,-0.0124,-0.0152,-0.0144,-0.0146,-0.0148,-0.0148,-0.018,-0.018,0,0,0,0,0,0,0.0027,0.0016,-0.0012,-0.0015,-0.0001,-0.0036,-0.0041,-0.0043,-0.0081,-0.0086,-0.0065,-0.0067,-0.0117,-0.0121,-0.0126,-0.0123,-0.0147,-0.0149,-0.015,-0.0181,-0.018,-0.018,0,0,0,0,0,0,0.0028,0.0025,-0.001,-0.0001,-0.0006,-0.0036,-0.0038,-0.0044,-0.0052,-0.0086,-0.0092,-0.0067,-0.0117,-0.0123,-0.0138,-0.0126,-0.0149,-0.0151,-0.0181,-0.0181,-0.018,-0.0126,0,0,0,0,0,0,0.0029,0.0026,0.0028,0.0,-0.0006,-0.0017,-0.0038,-0.0045,-0.0054,-0.0057,-0.009,-0.0095,-0.0118,-0.0134,-0.014,-0.0129,-0.0153,-0.0182,-0.0181,-0.018,-0.0129,-0.0124,-0.012,0,0,0,0,0,0.003,0.0036,0.0028,0.0025,-0.0003,-0.0017,-0.0022,-0.0045,-0.0054,-0.0053,-0.0076,-0.0094,-0.0134,-0.0136,-0.0142,-0.0132,-0.0182,-0.0181,-0.018,-0.013,-0.0125,-0.012,0,0,0,0,0,0,0.0051,0.0032,0.0023,0.0022,0.0007,-0.0022,-0.0025,-0.0039,-0.0057,-0.0059,-0.0091,-0.0098,-0.0108,-0.0127,-0.0128,-0.0139,-0.016,-0.016,-0.012,-0.0115,-0.0111,-0.0097,-0.0155,0,0,0,0,0,0.0058,0.0057,0.0036,0.0035,0.003,0.0004,-0.0004,-0.0017,-0.0038,-0.0046,-0.007,-0.0092,-0.011,-0.0117,-0.0139,-0.0143,-0.0164,-0.014,-0.0136,-0.0132,-0.0125,-0.0151,-0.0148,-0.0177,-0.0177,-0.0177,0,0,0.0064,0.0055,0.0053,0.004,0.0026,0.0027,-0.0001,-0.0008,-0.0007,-0.0049,-0.0054,-0.008,-0.0109,-0.0116,-0.0121,-0.0129,-0.0135,-0.0131,-0.0128,-0.0123,-0.015,-0.0147,-0.0144,-0.0177,-0.0177,-0.0177,0,0,0.0082,0.0071,0.0079,0.007,0.0057,0.0045,0.0047,0.0023,0.0013,0.0003,-0.0025,-0.0042,-0.0071,-0.0087,-0.0099,-0.0084,-0.0114,-0.009,-0.0053,-0.0078,-0.0076,-0.0074,-0.0093,-0.0093,-0.0084,-0.0084,-0.0084,0,0.0091,0.0098,0.0079,0.0085,0.0085,0.0058,0.007,0.0057,0.0031,0.0029,0.001,-0.0029,-0.0056,-0.0061,-0.0056,-0.0073,-0.0091,-0.0069,-0.0072,-0.0071,-0.007,-0.009,-0.0091,-0.0081,-0.0081,-0.0082,-0.0082,0,0.0114,0.012,0.0125,0.0127,0.0126,0.013,0.0115,0.0111,0.0096,0.0081,0.0068,0.0027,0.0007,-0.0005,-0.0027,-0.0029,-0.0045,-0.0066,-0.0082,-0.0063,-0.0086,-0.0088,-0.0077,-0.0078,-0.0079,-0.008,0,0,0.0134,0.0141,0.0143,0.0157,0.015,0.0155,0.0162,0.0162,0.0176,0.0139,0.0147,0.0107,0.0082,0.0067,0.0035,0.0014,0.0002,-0.0017,-0.0019,-0.0031,-0.0048,-0.0056,-0.0059,-0.002,-0.002,-0.002,-0.0064,0,0.0159,0.019,0.0183,0.0214,0.023,0.0214,0.0227,0.0224,0.0215,0.0214,0.0169,0.016,0.0111,0.0105,0.0075,0.0023,-0.0002,0.0016,-0.0068,-0.007,-0.0077,-0.0061,-0.0042,-0.0079,-0.0066,-0.0067,-0.0067,0,0.0185,0.0206,0.0242,0.0269,0.0275,0.0287,0.0312,0.0322,0.0312,0.0304,0.0282,0.0242,0.0208,0.016,0.0079,0.0093,0.0029,-0.0018,-0.0022,-0.0048,-0.0082,-0.0098,-0.0084,-0.0071,-0.0071,-0.0071,-0.007,0,0.0219,0.0247,0.0283,0.0289,0.0312,0.0327,0.0342,0.0349,0.0376,0.0364,0.0375,0.0317,0.0301,0.0208,0.0106,0.0092,0.0016,-0.002,-0.0089,-0.0091,-0.01,-0.0102,-0.0082,-0.0082,-0.0082,-0.0082,-0.0081,0,0.0251,0.0279,0.0301,0.032,0.0372,0.0371,0.0425,0.0429,0.0452,0.0501,0.0426,0.0445,0.0313,0.0249,0.0136,0.0027,0.0035,-0.0077,-0.01,-0.008,-0.008,-0.0096,-0.0097,-0.0083,-0.0083,-0.0082,-0.0082,0,0.0281,0.0294,0.0338,0.0371,0.0389,0.0426,0.0488,0.053,0.0538,0.0599,0.0597,0.055,0.0468,0.0327,0.0191,0.0084,-0.0034,-0.0079,-0.0042,-0.0061,-0.0134,-0.0132,-0.0163,-0.0164,-0.0165,-0.0165,-0.0165,0,0.0297,0.032,0.0378,0.0417,0.0434,0.0493,0.0542,0.0574,0.0629,0.0672,0.0707,0.0644,0.0614,0.0404,0.0206,0.0009,-0.0024,-0.0102,-0.0133,-0.0122,-0.0142,-0.0139,-0.0136,-0.0125,-0.0125,-0.0125,-0.0125,0,0.0322,0.034,0.0382,0.0466,0.0522,0.06,0.0671,0.0729,0.0782,0.0827,0.0878,0.0854,0.0661,0.0472,0.0202,0.0067,-0.0072,-0.0108,-0.0103,-0.0105,-0.0088,-0.0107,-0.0105,-0.0125,-0.0125,-0.0125,-0.0125,-0.0125,0.0337,0.0375,0.0432,0.051,0.059,0.0693,0.0764,0.0848,0.0944,0.1016,0.0999,0.0966,0.075,0.0404,0.0174,-0.0069,-0.0066,-0.0158,-0.0157,-0.0156,-0.014,-0.0126,-0.0167,-0.0167,-0.0167,-0.0167,-0.0167,0,0.0347,0.0398,0.0473,0.0573,0.0665,0.0707,0.0842,0.0916,0.1033,0.1092,0.1122,0.0915,0.0699,0.0445,0.009,-0.0125,-0.0146,-0.0195,-0.0173,-0.0171,-0.017,-0.0155,-0.0186,-0.0186,-0.0187,-0.0187,0,0,0.0354,0.042,0.046,0.0605,0.0688,0.0816,0.0897,0.1016,0.1091,0.1143,0.1127,0.1076,0.0777,0.0516,0.0224,0.0022,-0.0026,-0.0021,0.0017,0.008,0.0083,-0.0125,-0.0097,0,0,0,0,0]}],[{"header":{"parameterUnit":"m.s-1","parameterCategory":2,"la1":30.2991,"la2":30.254,"lo1":-89.0895,"lo2":-89.0444,"dy":0.0017,"dx":0.0017,"nx":28,"ny":28,"refTime":"2024-02-13T03:00:00:Z","depth":"4","parameterNumber":2,"parameterNumberName":"U-component_of_CURRENTS"},"data":[0,0,0,0,0,0,0,0,0,0,0,0,0,0,0,0,0,0,0,0,0,0,0,0,0,0,0,0,0,0,0,0,0,0,0,0,0,0,0,0,0,0,0,0,0,0,0,0,0,0,0,0,0,0,0,0,0,0,0.1189,0.119,0,0.1238,0.1239,0.1239,0.128,0.128,0.1281,0.1281,0.1332,0.1332,0.1333,0,0,0,0,0,0,0,0,0,0,0,0,0,0.1119,0.112,0.1189,0.119,0.1191,0.1238,0.1239,0.1239,0.128,0.128,0.1281,0.1282,0.1331,0.1332,0.1333,0,0,0,0,0,0,0,0,0,0,0,0,0,0.1156,0.112,0.1189,0.1218,0.1221,0.1238,0.1239,0.1239,0.128,0.128,0.1281,0.1282,0.1331,0.1332,0.1333,0.1325,0,0,0.1337,0.1338,0,0,0,0,0,0,0,0,0.1153,0.1158,0.1213,0.1216,0.1219,0.1255,0.1232,0.1268,0.1279,0.1256,0.1281,0.1282,0.1306,0.131,0.1315,0.1327,0.1329,0.1337,0.1338,0.1339,0.1339,0,0,0,0,0,0,0,0.1151,0.1156,0.1207,0.1213,0.1217,0.1224,0.123,0.1239,0.1275,0.1258,0.1261,0.1269,0.1308,0.1314,0.1317,0.133,0.1337,0.1338,0.1339,0.134,0.1416,0.1417,0,0,0,0,0,0,0.1147,0.1154,0.1206,0.1209,0.1189,0.1225,0.1231,0.1242,0.1275,0.1281,0.1268,0.127,0.1311,0.1315,0.1319,0.1377,0.1339,0.134,0.134,0.1414,0.1416,0.1417,0,0,0,0,0,0,0.1146,0.1152,0.1204,0.1183,0.1191,0.1225,0.1236,0.1242,0.1275,0.1283,0.1289,0.1298,0.1312,0.1317,0.1354,0.1377,0.134,0.1341,0.1413,0.1415,0.1417,0.1451,0,0,0,0,0,0,0.1143,0.1151,0.1169,0.1183,0.1192,0.123,0.1236,0.1243,0.1277,0.1281,0.1309,0.1313,0.1313,0.1352,0.1355,0.1378,0.1342,0.1411,0.1414,0.1416,0.1448,0.1454,0.1459,0,0,0,0,0,0.1141,0.1156,0.117,0.1177,0.1212,0.1231,0.1236,0.1262,0.1278,0.1294,0.1319,0.1314,0.1369,0.1354,0.1357,0.1381,0.141,0.1413,0.1416,0.1446,0.1453,0.1459,0,0,0,0,0,0,0.1135,0.1162,0.1177,0.1202,0.1224,0.1238,0.126,0.1276,0.1308,0.1322,0.1329,0.1334,0.1375,0.1375,0.1358,0.1411,0.139,0.1393,0.1411,0.1418,0.1423,0.142,0.1343,0,0,0,0,0,0.1142,0.1165,0.1186,0.1209,0.1223,0.1247,0.1264,0.1281,0.1305,0.1321,0.1341,0.1364,0.1384,0.14,0.1415,0.1443,0.1445,0.1462,0.1467,0.1471,0.1472,0.1491,0.1498,0.1427,0.1427,0.1427,0,0,0.1147,0.1166,0.118,0.1211,0.1232,0.1252,0.126,0.1292,0.1316,0.132,0.1367,0.1384,0.1396,0.143,0.1448,0.1436,0.1497,0.1475,0.1479,0.1477,0.1495,0.1502,0.1508,0.1429,0.1428,0.1428,0,0,0.1156,0.1185,0.1205,0.1225,0.1261,0.1274,0.1289,0.132,0.1345,0.1382,0.1396,0.1429,0.1459,0.1473,0.1482,0.1525,0.1523,0.1537,0.1561,0.158,0.1586,0.1591,0.1615,0.1621,0.1539,0.154,0.154,0,0.1163,0.1189,0.1214,0.1235,0.1254,0.1286,0.1307,0.1334,0.1375,0.1395,0.1404,0.1461,0.1476,0.1512,0.1533,0.1536,0.155,0.1534,0.1586,0.1591,0.1595,0.1618,0.1625,0.1542,0.1541,0.1541,0.1541,0,0.1178,0.1209,0.1222,0.126,0.1283,0.1309,0.1342,0.1376,0.1409,0.1431,0.1483,0.1506,0.1538,0.1552,0.1558,0.1602,0.1603,0.1589,0.1566,0.1604,0.1627,0.1633,0.1544,0.1544,0.1543,0.1543,0,0,0.1165,0.1222,0.1229,0.1248,0.13,0.1312,0.1362,0.1402,0.1433,0.1479,0.1516,0.1561,0.1581,0.1594,0.161,0.1631,0.1682,0.1631,0.1631,0.1649,0.1735,0.1644,0.1643,0.1679,0.168,0.1681,0.1743,0,0.1172,0.1209,0.124,0.1276,0.1294,0.1338,0.1373,0.1417,0.146,0.1505,0.1543,0.1586,0.1595,0.1621,0.1646,0.1677,0.17,0.1667,0.1701,0.1702,0.1611,0.1647,0.1684,0.1747,0.1749,0.175,0.1751,0,0.1169,0.1196,0.1234,0.1278,0.1291,0.1321,0.1378,0.1416,0.1486,0.1522,0.1576,0.1607,0.1668,0.1658,0.1729,0.1712,0.1729,0.1743,0.1745,0.1649,0.1622,0.17,0.1763,0.1762,0.1761,0.176,0.1759,0,0.113,0.1185,0.1215,0.1232,0.1291,0.1321,0.1359,0.1426,0.1464,0.1545,0.1585,0.1645,0.1699,0.1725,0.1778,0.1759,0.1844,0.1813,0.1744,0.1739,0.1787,0.178,0.1846,0.1846,0.1846,0.1845,0.1845,0,0.1109,0.1131,0.1202,0.1215,0.1249,0.1301,0.135,0.1398,0.1475,0.152,0.1598,0.1644,0.1721,0.178,0.1796,0.1803,0.1863,0.1754,0.1746,0.1802,0.1797,0.1792,0.1785,0.1848,0.1847,0.1847,0.1846,0,0.1055,0.1107,0.1138,0.1208,0.1233,0.1258,0.1344,0.1372,0.1464,0.153,0.1562,0.1671,0.1747,0.1811,0.1872,0.1827,0.1836,0.1821,0.1902,0.1897,0.1712,0.1706,0.173,0.1727,0.1725,0.1723,0.1722,0,0.1028,0.1042,0.1121,0.1141,0.1178,0.1232,0.1265,0.1357,0.1394,0.1532,0.1552,0.1669,0.1731,0.1754,0.1821,0.1844,0.1822,0.181,0.1729,0.1708,0.1699,0.1697,0.1695,0.1718,0.1717,0.1717,0.1716,0,0.0965,0.1007,0.1034,0.1084,0.1124,0.1161,0.1222,0.1238,0.1347,0.1448,0.1508,0.1553,0.1643,0.1693,0.1738,0.1745,0.1802,0.1784,0.1788,0.1712,0.1694,0.1686,0.1687,0.1708,0.1709,0.171,0.171,0,0.0918,0.0925,0.0974,0.1003,0.1055,0.1069,0.1112,0.116,0.1212,0.1361,0.1384,0.1514,0.1628,0.1644,0.1682,0.169,0.1649,0.1575,0.1588,0.1598,0.1526,0.1481,0.1427,0,0,0,0,0,0.0856,0.0857,0.0885,0.0915,0.0965,0.0996,0.107,0.1119,0.123,0.1235,0.1304,0.1378,0.1444,0.1515,0.1495,0.1616,0.165,0.1585,0.157,0.1663,0.1672,0.1599,0,0,0,0,0,0,0.0816,0.0839,0.0854,0.0836,0.0843,0.0887,0.0929,0.1005,0.1016,0.1141,0.119,0.1291,0.138,0.1446,0.1469,0.1489,0.1449,0.1668,0.1664,0.1658,0.1666,0.1674,0.1602,0,0,0,0,0]},{"header":{"parameterUnit":"m.s-1","parameterCategory":2,"la1":30.2991,"la2":30.254,"lo1":-89.0895,"lo2":-89.0444,"dy":0.0017,"dx":0.0017,"nx":28,"ny":28,"refTime":"2024-02-13T03:00:00:Z","depth":"4","parameterNumber":3,"parameterNumberName":"V-component_of_CURRENTS"},"data":[0,0,0,0,0,0,0,0,0,0,0,0,0,0,0,0,0,0,0,0,0,0,0,0,0,0,0,0,0,0,0,0,0,0,0,0,0,0,0,0,0,0,0,0,0,0,0,0,0,0,0,0,0,0,0,0,0,0,0.0041,0.0041,0,0.0006,0.0005,0.0005,-0.0013,-0.0013,-0.0014,-0.0014,-0.0049,-0.005,-0.0051,0,0,0,0,0,0,0,0,0,0,0,0,0,0.007,0.007,0.0041,0.0041,0.004,0.0006,0.0005,0.0005,-0.0013,-0.0013,-0.0014,-0.0014,-0.0049,-0.005,-0.0051,0,0,0,0,0,0,0,0,0,0,0,0,0,0.0048,0.0069,0.0041,0.0027,0.0025,0.0006,0.0005,0.0005,-0.0013,-0.0013,-0.0014,-0.0014,-0.0048,-0.005,-0.0051,-0.0059,0,0,-0.0055,-0.0056,0,0,0,0,0,0,0,0,0.0049,0.0047,0.003,0.0028,0.0026,0.0001,0.0002,-0.0017,-0.0013,0.0001,-0.0014,-0.0014,-0.0032,-0.0035,-0.0042,-0.0061,-0.0062,-0.0055,-0.0056,-0.0057,-0.0057,0,0,0,0,0,0,0,0.0051,0.0048,0.0027,0.0029,0.0027,0.0014,0.0012,-0.0001,-0.0015,-0.0,-0.0001,-0.0005,-0.0033,-0.004,-0.0043,-0.0063,-0.0055,-0.0056,-0.0057,-0.0058,-0.0086,-0.0086,0,0,0,0,0,0,0.0057,0.005,0.0028,0.0026,0.0038,0.0014,0.0011,0.0009,-0.0015,-0.0018,-0.0005,-0.0006,-0.0038,-0.0041,-0.0044,-0.0042,-0.0057,-0.0058,-0.0059,-0.0086,-0.0086,-0.0086,0,0,0,0,0,0,0.0057,0.0055,0.003,0.0037,0.0033,0.0014,0.0011,0.0008,0.0003,-0.0019,-0.0022,-0.0007,-0.0038,-0.0042,-0.0053,-0.0044,-0.0059,-0.006,-0.0086,-0.0086,-0.0086,-0.0046,0,0,0,0,0,0,0.0058,0.0056,0.0057,0.0038,0.0033,0.0023,0.0011,0.0007,0.0,-0.0001,-0.0021,-0.0025,-0.0038,-0.0051,-0.0055,-0.0046,-0.0061,-0.0086,-0.0086,-0.0086,-0.0048,-0.0045,-0.0042,0,0,0,0,0,0.006,0.0061,0.0057,0.0054,0.0035,0.0023,0.002,0.0005,0.0,0.0,-0.0014,-0.0024,-0.0053,-0.0052,-0.0056,-0.0048,-0.0087,-0.0086,-0.0086,-0.0049,-0.0045,-0.0042,0,0,0,0,0,0,0.0071,0.0058,0.0054,0.005,0.004,0.002,0.0018,0.0008,-0.0004,-0.0004,-0.0024,-0.0029,-0.0036,-0.0049,-0.0048,-0.0057,-0.0071,-0.0071,-0.0041,-0.0038,-0.0035,-0.0019,-0.0062,0,0,0,0,0,0.0075,0.0075,0.0059,0.0057,0.0054,0.0037,0.003,0.0022,0.0008,0.0003,-0.0012,-0.0027,-0.0039,-0.0044,-0.0059,-0.0062,-0.0077,-0.006,-0.0058,-0.0055,-0.0046,-0.006,-0.0057,-0.0085,-0.0085,-0.0085,0,0,0.0078,0.0072,0.0071,0.006,0.0051,0.0052,0.0033,0.0027,0.003,0.0001,-0.0001,-0.0021,-0.004,-0.0045,-0.0049,-0.0053,-0.0058,-0.0055,-0.0053,-0.0044,-0.0059,-0.0056,-0.0054,-0.0085,-0.0085,-0.0085,0,0,0.0088,0.008,0.0085,0.008,0.007,0.0063,0.0064,0.0047,0.0042,0.0035,0.0016,0.0004,-0.0017,-0.0025,-0.0032,-0.0024,-0.0046,-0.0032,-0.0,-0.0014,-0.0012,-0.001,-0.0033,-0.0034,-0.0026,-0.0026,-0.0026,0,0.0093,0.0099,0.0084,0.0089,0.0091,0.0072,0.0082,0.0073,0.0055,0.0057,0.004,0.0015,-0.0005,-0.0002,-0.0001,-0.0016,-0.0032,-0.0009,-0.0009,-0.0008,-0.0006,-0.0031,-0.0032,-0.0024,-0.0024,-0.0025,-0.0025,0,0.0106,0.0113,0.0115,0.0119,0.012,0.0123,0.0114,0.0113,0.0103,0.0095,0.0089,0.0058,0.0048,0.0036,0.0019,0.0023,0.0005,-0.0007,-0.0014,-0.0001,-0.0028,-0.003,-0.0021,-0.0022,-0.0023,-0.0023,0,0,0.0115,0.0124,0.0127,0.0141,0.0139,0.0144,0.0151,0.0158,0.0173,0.0145,0.0158,0.0128,0.0111,0.0101,0.0076,0.0063,0.0051,0.0037,0.0035,0.0019,0.0013,-0.0005,-0.0008,0.0039,0.004,0.004,-0.0014,0,0.0133,0.0157,0.0156,0.0184,0.0198,0.0191,0.0206,0.0209,0.0205,0.0209,0.0178,0.0176,0.0136,0.0133,0.0113,0.0068,0.005,0.0066,-0.0003,-0.0005,-0.0017,-0.0009,0.004,-0.0015,-0.0016,-0.0016,-0.0016,0,0.0148,0.0167,0.0199,0.0231,0.0238,0.0251,0.0281,0.0292,0.0292,0.0289,0.0277,0.0247,0.0223,0.0186,0.012,0.0132,0.0078,0.0038,0.0035,0.0008,-0.0024,-0.0031,-0.0019,-0.0019,-0.0019,-0.0019,-0.0018,0,0.017,0.0198,0.0231,0.0239,0.0267,0.0286,0.0304,0.0318,0.0341,0.0341,0.035,0.0311,0.0293,0.0227,0.0133,0.0129,0.0054,0.0037,-0.003,-0.0032,-0.0018,-0.002,-0.0007,-0.0006,-0.0006,-0.0006,-0.0006,0,0.0191,0.0217,0.0246,0.0263,0.0312,0.0321,0.0373,0.0382,0.0405,0.0435,0.0394,0.0395,0.0303,0.0241,0.0155,0.0056,0.0067,-0.002,-0.0042,-0.0003,-0.0002,-0.002,-0.0021,-0.0008,-0.0008,-0.0007,-0.0007,0,0.0206,0.0223,0.0264,0.0304,0.0323,0.0358,0.0419,0.0455,0.0469,0.0502,0.0503,0.046,0.0377,0.0273,0.0162,0.0087,-0.0007,-0.0047,-0.0001,-0.0021,-0.0091,-0.0089,-0.0119,-0.012,-0.0121,-0.0121,-0.0122,0,0.0213,0.0233,0.0293,0.0326,0.0346,0.0404,0.0447,0.0484,0.052,0.0536,0.0548,0.0485,0.0436,0.0272,0.0157,-0.0005,-0.0033,-0.0082,-0.0082,-0.0081,-0.01,-0.0097,-0.0094,-0.0123,-0.0123,-0.0124,-0.0124,0,0.0221,0.0242,0.0279,0.0348,0.0399,0.0466,0.0523,0.0554,0.0591,0.0604,0.0586,0.05,0.0406,0.0272,0.0144,0.0026,-0.0047,-0.0091,-0.009,-0.009,-0.0087,-0.0104,-0.01,-0.0127,-0.0126,-0.0126,-0.0126,0,0.0223,0.0251,0.0298,0.0362,0.043,0.0497,0.0536,0.0574,0.0611,0.0621,0.0611,0.0512,0.0459,0.0287,0.0169,0.0053,0.002,-0.0017,-0.002,-0.0019,0.0022,0.0042,0.0029,0,0,0,0,0,0.0217,0.025,0.0308,0.038,0.045,0.0494,0.057,0.0604,0.0635,0.0628,0.0623,0.0533,0.0365,0.0297,0.0177,0.014,-0.0009,-0.0005,-0.0056,-0.0142,-0.0139,-0.011,0,0,0,0,0,0,0.0212,0.026,0.0299,0.0378,0.0432,0.0513,0.0566,0.0597,0.0596,0.0607,0.0523,0.0493,0.0331,0.0427,0.017,0.0135,0.0085,-0.0079,-0.0081,-0.0144,-0.0141,-0.0138,-0.0107,0,0,0,0,0]}]]